[[{"header":{"parameterUnit":"m.s-1","parameterCategory":2,"la1":30.2991,"la2":30.254,"lo1":-89.0895,"lo2":-89.0444,"dy":0.0017,"dx":0.0017,"nx":28,"ny":28,"refTime":"2024-04-13T03:00:00:Z","depth":"0","parameterNumber":2,"parameterNumberName":"U-component_of_CURRENTS"},"data":[0,0,0,0,0,0,0,0,0,0,0,0,0,0,0,0,0,0,0,0,0,0,0,0,0,0,0,0,0,0,0,0,0,0,0,0,0,0,0,0,0,0,0,0,0,0,0,0,0,0,0,0,0,0,0,0,0,0,0.2874,0.2876,0,0.2984,0.2985,0.2986,0.2987,0.2986,0.2985,0.2984,0.2944,0.2944,0.2944,0,0,0,0,0,0,0,0,0,0,0,0,0,0.2684,0.2688,0.2874,0.2876,0.2878,0.2984,0.2985,0.2987,0.2988,0.2986,0.2985,0.2983,0.2944,0.2944,0.2944,0,0,0,0,0,0,0,0,0,0,0,0,0,0.2775,0.2689,0.2874,0.2893,0.2896,0.2984,0.2985,0.2987,0.2988,0.2986,0.2984,0.2983,0.2944,0.2944,0.2944,0.2979,0,0,0.2944,0.2944,0,0,0,0,0,0,0,0,0.277,0.2782,0.2888,0.2892,0.2895,0.2973,0.2904,0.2978,0.2988,0.295,0.2984,0.2982,0.2943,0.2943,0.2966,0.2977,0.2976,0.2944,0.2944,0.2944,0.2944,0,0,0,0,0,0,0,0.2764,0.2777,0.2915,0.289,0.2895,0.2902,0.2913,0.2919,0.295,0.2953,0.2954,0.2971,0.2943,0.2966,0.2964,0.2975,0.2944,0.2944,0.2944,0.2944,0.298,0.2981,0,0,0,0,0,0,0.2757,0.2772,0.2912,0.2919,0.283,0.2907,0.2919,0.2947,0.2953,0.2955,0.2973,0.2971,0.2967,0.2964,0.2963,0.297,0.2944,0.2944,0.2944,0.2979,0.298,0.2981,0,0,0,0,0,0,0.2753,0.2769,0.2907,0.2849,0.2867,0.2913,0.2944,0.2951,0.2965,0.297,0.2967,0.298,0.2965,0.2963,0.297,0.2969,0.2944,0.2944,0.2978,0.2979,0.2981,0.3007,0,0,0,0,0,0,0.2747,0.2767,0.2784,0.2849,0.287,0.2952,0.2947,0.2954,0.298,0.2979,0.2976,0.2971,0.2964,0.297,0.297,0.2969,0.2944,0.2977,0.2979,0.298,0.3005,0.3009,0.3012,0,0,0,0,0,0.274,0.2775,0.2784,0.2801,0.2893,0.2954,0.2965,0.2989,0.2982,0.2994,0.2996,0.2971,0.2981,0.2972,0.2971,0.297,0.2976,0.2978,0.298,0.3003,0.3008,0.3012,0,0,0,0,0,0,0.2699,0.2781,0.2792,0.2848,0.2892,0.2954,0.2979,0.299,0.3007,0.3003,0.2991,0.2988,0.2995,0.2985,0.2976,0.2987,0.2971,0.2973,0.2989,0.2993,0.2997,0.3011,0.2944,0,0,0,0,0,0.2701,0.2751,0.2813,0.2858,0.2881,0.2927,0.2955,0.2973,0.3001,0.3008,0.3006,0.3005,0.301,0.3001,0.301,0.3017,0.3076,0.3014,0.3018,0.3021,0.3034,0.3147,0.3163,0.2988,0.2988,0.2988,0,0,0.2699,0.275,0.2778,0.2852,0.2892,0.293,0.2939,0.2988,0.3007,0.2999,0.3018,0.3024,0.3018,0.3031,0.3031,0.3016,0.3105,0.3024,0.3027,0.3038,0.3151,0.3169,0.3184,0.299,0.2989,0.2989,0,0,0.2719,0.2765,0.2807,0.2845,0.2908,0.2939,0.2948,0.3006,0.3016,0.3043,0.3043,0.3055,0.3054,0.3061,0.3059,0.309,0.313,0.308,0.31,0.321,0.3226,0.3241,0.3353,0.3378,0.3072,0.3072,0.3072,0,0.2709,0.2771,0.2825,0.2868,0.2896,0.2937,0.2968,0.2998,0.3045,0.3058,0.3043,0.3082,0.307,0.3096,0.3103,0.3098,0.3177,0.3079,0.3218,0.3233,0.3248,0.336,0.3387,0.3073,0.3073,0.3073,0.3073,0,0.276,0.2798,0.2827,0.2892,0.2926,0.2967,0.3009,0.3037,0.3048,0.3073,0.3105,0.3115,0.3139,0.3128,0.312,0.3203,0.3235,0.322,0.3209,0.3268,0.3381,0.3409,0.3075,0.3075,0.3074,0.3074,0,0,0.2759,0.2844,0.2849,0.2869,0.2939,0.2972,0.301,0.3056,0.3091,0.3114,0.3169,0.3162,0.3185,0.3188,0.3189,0.3261,0.3426,0.3285,0.329,0.3403,0.3699,0.364,0.3664,0.3452,0.3456,0.346,0.3743,0,0.2773,0.2834,0.2877,0.292,0.2949,0.2994,0.3028,0.3074,0.3114,0.3183,0.3199,0.3252,0.3202,0.3235,0.3299,0.3411,0.3498,0.3352,0.362,0.3628,0.3573,0.3693,0.3519,0.3749,0.377,0.3774,0.3778,0,0.2799,0.2836,0.2874,0.2928,0.2947,0.2978,0.3047,0.3086,0.3182,0.3222,0.328,0.3325,0.3425,0.3386,0.3598,0.3518,0.3614,0.3685,0.3698,0.3652,0.3619,0.3691,0.3799,0.3639,0.382,0.3817,0.3814,0,0.276,0.2827,0.2849,0.2871,0.2945,0.2969,0.3009,0.3092,0.3151,0.3274,0.3359,0.3454,0.3558,0.3676,0.38,0.3737,0.4063,0.3994,0.4027,0.4025,0.3931,0.3911,0.3917,0.4164,0.4163,0.4162,0.4161,0,0.2754,0.2772,0.2834,0.2849,0.2892,0.2946,0.3015,0.3074,0.32,0.33,0.3385,0.3507,0.3647,0.3826,0.3898,0.4069,0.4151,0.4074,0.4106,0.3933,0.3912,0.3808,0.3742,0.4173,0.417,0.4168,0.4167,0,0.2713,0.2749,0.2788,0.2854,0.2877,0.2911,0.3027,0.3098,0.3209,0.3365,0.3422,0.3626,0.3843,0.3978,0.4218,0.4215,0.4239,0.4395,0.4181,0.4179,0.398,0.3921,0.3906,0.3795,0.4474,0.4475,0.4475,0,0.2698,0.2712,0.2784,0.2824,0.2858,0.2922,0.2986,0.3091,0.3181,0.3426,0.3517,0.3772,0.3924,0.4247,0.4312,0.4463,0.4294,0.4371,0.4178,0.398,0.3942,0.3776,0.367,0.409,0.4087,0.4084,0.4082,0,0.2692,0.2719,0.2766,0.2836,0.29,0.2944,0.3037,0.3103,0.3252,0.3389,0.3588,0.3732,0.403,0.4106,0.4297,0.4344,0.4113,0.4324,0.4188,0.3706,0.3463,0.3365,0.3898,0.4062,0.4064,0.4065,0.4066,0.4067,0.2715,0.2746,0.2822,0.2868,0.2927,0.2948,0.2947,0.3066,0.3171,0.3324,0.3542,0.3698,0.3873,0.4094,0.4119,0.3994,0.3996,0.3848,0.3827,0.3701,0.3468,0.3949,0.4083,0.4085,0.4087,0.4089,0.409,0,0.2761,0.28,0.2856,0.2897,0.2898,0.2926,0.2973,0.2947,0.3007,0.3215,0.3356,0.3523,0.3587,0.3672,0.3647,0.3517,0.3345,0.3403,0.3113,0.3059,0.3564,0.3411,0.3319,0.3319,0.3319,0.3319,0.3319,0.3319,0.2811,0.2866,0.2862,0.2848,0.2844,0.2775,0.2746,0.2735,0.2816,0.29,0.2992,0.3141,0.3293,0.3303,0.3148,0.3081,0.2828,0.2718,0.2721,0.3036,0.3072,0.3107,0.2945,0.2756,0.2755,0.2057,0.2052,0.2048]},{"header":{"parameterUnit":"m.s-1","parameterCategory":2,"la1":30.2991,"la2":30.254,"lo1":-89.0895,"lo2":-89.0444,"dy":0.0017,"dx":0.0017,"nx":28,"ny":28,"refTime":"2024-04-13T03:00:00:Z","depth":"0","parameterNumber":3,"parameterNumberName":"V-component_of_CURRENTS"},"data":[0,0,0,0,0,0,0,0,0,0,0,0,0,0,0,0,0,0,0,0,0,0,0,0,0,0,0,0,0,0,0,0,0,0,0,0,0,0,0,0,0,0,0,0,0,0,0,0,0,0,0,0,0,0,0,0,0,0,-0.0052,-0.0053,0,-0.0127,-0.0128,-0.0129,-0.0164,-0.0164,-0.0164,-0.0164,-0.0269,-0.0272,-0.0275,0,0,0,0,0,0,0,0,0,0,0,0,0,-0.0029,-0.0029,-0.0052,-0.0053,-0.0054,-0.0126,-0.0128,-0.0129,-0.0164,-0.0164,-0.0164,-0.0164,-0.0268,-0.0272,-0.0275,0,0,0,0,0,0,0,0,0,0,0,0,0,-0.0067,-0.0029,-0.0052,-0.0078,-0.0081,-0.0126,-0.0128,-0.0129,-0.0164,-0.0164,-0.0164,-0.0163,-0.0267,-0.0271,-0.0276,-0.0311,0,0,-0.029,-0.0292,0,0,0,0,0,0,0,0,-0.0064,-0.0068,-0.0074,-0.0077,-0.008,-0.0134,-0.0158,-0.0191,-0.0164,-0.0135,-0.0164,-0.0163,-0.0226,-0.0233,-0.0251,-0.0316,-0.032,-0.029,-0.0293,-0.0295,-0.0296,0,0,0,0,0,0,0,-0.0062,-0.0065,-0.0084,-0.0075,-0.0078,-0.0117,-0.0121,-0.0165,-0.0184,-0.0138,-0.014,-0.0145,-0.0228,-0.0246,-0.0254,-0.0322,-0.029,-0.0294,-0.0297,-0.0299,-0.0401,-0.0401,0,0,0,0,0,0,-0.0044,-0.0062,-0.0082,-0.0086,-0.0069,-0.0117,-0.0122,-0.0119,-0.0183,-0.0191,-0.0145,-0.0146,-0.0239,-0.0248,-0.0258,-0.0274,-0.0295,-0.0299,-0.0302,-0.0401,-0.0401,-0.0401,0,0,0,0,0,0,-0.0043,-0.0044,-0.0078,-0.0075,-0.0081,-0.0117,-0.0114,-0.012,-0.0138,-0.0187,-0.0197,-0.0154,-0.0239,-0.0251,-0.0295,-0.0279,-0.0301,-0.0305,-0.0401,-0.0401,-0.0401,-0.0326,0,0,0,0,0,0,-0.0042,-0.0043,-0.004,-0.0073,-0.0081,-0.0108,-0.0114,-0.0122,-0.014,-0.0142,-0.0199,-0.0208,-0.024,-0.0288,-0.0299,-0.0286,-0.0309,-0.0401,-0.0401,-0.0401,-0.0328,-0.0323,-0.0319,0,0,0,0,0,-0.0041,-0.0038,-0.0039,-0.0042,-0.0073,-0.0108,-0.0117,-0.0143,-0.0141,-0.0155,-0.0186,-0.0207,-0.0295,-0.0292,-0.0305,-0.0293,-0.0401,-0.0401,-0.0401,-0.033,-0.0324,-0.0319,0,0,0,0,0,0,-0.0025,-0.0042,-0.0044,-0.0045,-0.0074,-0.0113,-0.0127,-0.014,-0.0177,-0.0175,-0.0217,-0.0229,-0.0261,-0.0293,-0.0288,-0.0323,-0.0348,-0.035,-0.0289,-0.0284,-0.028,-0.0243,-0.0312,0,0,0,0,0,-0.0018,-0.0021,-0.0046,-0.0049,-0.0059,-0.0091,-0.0108,-0.0124,-0.0157,-0.0172,-0.0209,-0.0243,-0.0273,-0.029,-0.0331,-0.0356,-0.0341,-0.0355,-0.035,-0.0346,-0.0325,-0.0286,-0.0274,-0.0401,-0.0401,-0.0401,0,0,-0.0014,-0.0022,-0.0025,-0.0046,-0.0068,-0.0074,-0.0101,-0.0124,-0.0124,-0.0179,-0.0197,-0.0237,-0.0279,-0.0303,-0.0318,-0.0325,-0.0303,-0.0346,-0.0341,-0.0323,-0.0284,-0.0271,-0.026,-0.0401,-0.0401,-0.0401,0,0,-0.0004,-0.0012,-0.0009,-0.0027,-0.0052,-0.007,-0.0072,-0.0109,-0.0122,-0.0151,-0.0178,-0.0203,-0.0264,-0.0277,-0.0291,-0.0287,-0.0284,-0.0306,-0.0245,-0.0207,-0.0195,-0.0185,-0.0143,-0.0129,-0.0296,-0.0296,-0.0296,0,0.0005,0.0013,-0.0018,-0.0016,-0.0016,-0.0059,-0.0049,-0.0073,-0.0119,-0.0116,-0.0147,-0.0194,-0.0242,-0.0232,-0.0236,-0.0272,-0.0248,-0.026,-0.0196,-0.0186,-0.0176,-0.0136,-0.0121,-0.0292,-0.0293,-0.0293,-0.0293,0,0.0018,0.0028,0.0027,0.0027,0.0016,0.0012,-0.0012,-0.0026,-0.0043,-0.0059,-0.0069,-0.0128,-0.0138,-0.0168,-0.0206,-0.0162,-0.0166,-0.0196,-0.02,-0.0158,-0.0119,-0.0105,-0.0287,-0.0288,-0.0289,-0.029,0,0,0.0046,0.0042,0.0045,0.0067,0.0046,0.0045,0.0047,0.0048,0.0085,0.0022,0.0076,-0.0005,-0.002,-0.0037,-0.0079,-0.0065,0.0007,-0.0097,-0.0097,-0.0036,0.0108,0.0081,0.0093,-0.0004,-0.0002,0.0,0.0112,0,0.0076,0.0105,0.009,0.0127,0.0148,0.0124,0.0143,0.0137,0.013,0.0164,0.0117,0.014,0.0028,0.005,0.004,0.0032,0.0045,-0.002,0.0041,0.0044,0.003,0.0108,0.0078,0.0172,0.0125,0.0127,0.0129,0,0.0111,0.0128,0.0173,0.0214,0.0223,0.0242,0.0294,0.0304,0.0326,0.033,0.0333,0.0308,0.0326,0.0229,0.0236,0.0206,0.0161,0.0134,0.0137,0.0099,0.0042,0.0118,0.0199,-0.0005,0.015,0.0148,0.0146,0,0.0175,0.0199,0.0248,0.0256,0.0283,0.0316,0.0337,0.0362,0.0423,0.0466,0.0546,0.0508,0.0576,0.0493,0.0414,0.0348,0.0436,0.0341,0.0268,0.0266,0.0246,0.0237,0.0155,0.0344,0.0344,0.0344,0.0343,0,0.0235,0.0277,0.0289,0.0319,0.0405,0.0395,0.0504,0.0516,0.0599,0.0735,0.0659,0.0789,0.0653,0.0672,0.0523,0.047,0.0528,0.0312,0.0305,0.0268,0.0261,0.0084,-0.0029,0.0348,0.0347,0.0346,0.0345,0,0.0315,0.0314,0.0383,0.042,0.0446,0.0515,0.0632,0.073,0.078,0.0973,0.1018,0.1067,0.1091,0.0931,0.0857,0.0675,0.0477,0.0529,0.0495,0.0479,0.0165,0.0058,0.003,-0.0041,0.0466,0.0466,0.0466,0,0.0363,0.0402,0.0471,0.0544,0.0574,0.0674,0.0774,0.0825,0.0958,0.1168,0.1303,0.1378,0.1466,0.1324,0.101,0.077,0.0551,0.0562,0.0396,0.0176,0.0053,-0.0015,-0.0079,0.0406,0.0406,0.0406,0.0405,0,0.0468,0.0491,0.0553,0.0689,0.0801,0.0929,0.1075,0.1198,0.1325,0.1501,0.1755,0.1843,0.1702,0.1474,0.1109,0.089,0.0413,0.0546,0.034,0.0027,-0.0068,-0.0149,0.0301,0.0403,0.0403,0.0403,0.0403,0.0403,0.0566,0.0636,0.0729,0.086,0.0998,0.1187,0.1308,0.1495,0.1725,0.1999,0.2071,0.2235,0.1825,0.1323,0.1032,0.0392,0.0413,0.0163,0.0068,0.0031,-0.0092,0.035,0.0416,0.0416,0.0416,0.0416,0.0417,0,0.0696,0.0775,0.0906,0.1069,0.1239,0.1279,0.1523,0.1664,0.1946,0.221,0.2408,0.2274,0.1766,0.1205,0.0364,-0.0022,-0.0177,-0.025,-0.038,-0.0413,0.0003,-0.0062,-0.0122,-0.0122,-0.0122,-0.0122,-0.0122,-0.0121,0.0788,0.0925,0.0976,0.1252,0.1375,0.1594,0.1727,0.1951,0.2152,0.2438,0.2532,0.2573,0.2056,0.0638,-0.0321,-0.0529,-0.0766,-0.0806,-0.091,-0.0696,-0.0667,-0.0638,-0.0729,-0.0927,-0.0928,-0.1296,-0.13,-0.1304]}],[{"header":{"parameterUnit":"m.s-1","parameterCategory":2,"la1":30.2991,"la2":30.254,"lo1":-89.0895,"lo2":-89.0444,"dy":0.0017,"dx":0.0017,"nx":28,"ny":28,"refTime":"2024-04-13T03:00:00:Z","depth":"2","parameterNumber":2,"parameterNumberName":"U-component_of_CURRENTS"},"data":[0,0,0,0,0,0,0,0,0,0,0,0,0,0,0,0,0,0,0,0,0,0,0,0,0,0,0,0,0,0,0,0,0,0,0,0,0,0,0,0,0,0,0,0,0,0,0,0,0,0,0,0,0,0,0,0,0,0,0.2441,0.2442,0,0.2464,0.2464,0.2463,0.2358,0.2356,0.2354,0.2352,0.2442,0.2446,0.245,0,0,0,0,0,0,0,0,0,0,0,0,0,0.226,0.2263,0.244,0.2442,0.2444,0.2465,0.2464,0.2462,0.2358,0.2356,0.2354,0.2352,0.244,0.2445,0.245,0,0,0,0,0,0,0,0,0,0,0,0,0,0.2303,0.2264,0.244,0.2404,0.2403,0.2465,0.2464,0.2462,0.2358,0.2356,0.2353,0.2351,0.2439,0.2445,0.2451,0.2541,0,0,0.2469,0.2472,0,0,0,0,0,0,0,0,0.2301,0.2308,0.2408,0.2407,0.2405,0.2418,0.2433,0.2497,0.2359,0.236,0.2352,0.2349,0.2451,0.2456,0.2445,0.2545,0.2549,0.247,0.2473,0.2476,0.2477,0,0,0,0,0,0,0,0.2298,0.2306,0.2435,0.241,0.2409,0.2373,0.2375,0.2443,0.241,0.236,0.2356,0.2382,0.2448,0.2439,0.2447,0.255,0.2469,0.2475,0.2478,0.2481,0.2786,0.279,0,0,0,0,0,0,0.233,0.2304,0.2435,0.2438,0.2362,0.238,0.2381,0.2405,0.2408,0.241,0.2384,0.2378,0.243,0.244,0.245,0.2573,0.2476,0.2481,0.2485,0.2781,0.2787,0.2791,0,0,0,0,0,0,0.2326,0.2341,0.2434,0.2382,0.2393,0.2388,0.2414,0.2407,0.243,0.2429,0.2428,0.242,0.2429,0.2441,0.2559,0.2575,0.2484,0.249,0.2776,0.2783,0.2789,0.281,0,0,0,0,0,0,0.232,0.2339,0.2351,0.2385,0.2398,0.2495,0.2418,0.241,0.2456,0.2447,0.246,0.2462,0.2427,0.2551,0.2565,0.2582,0.2494,0.277,0.2779,0.2787,0.2804,0.2817,0.2828,0,0,0,0,0,0.2314,0.2334,0.2351,0.2367,0.242,0.2499,0.2502,0.2477,0.2461,0.2485,0.2513,0.2463,0.2612,0.2561,0.2577,0.2594,0.2766,0.2776,0.2786,0.2799,0.2815,0.2828,0,0,0,0,0,0,0.2259,0.2329,0.2347,0.2388,0.246,0.2487,0.2501,0.2521,0.2558,0.2558,0.2543,0.2551,0.2649,0.2661,0.2604,0.2716,0.2674,0.2688,0.2678,0.2693,0.2705,0.268,0.2499,0,0,0,0,0,0.2266,0.23,0.2381,0.2424,0.2461,0.2502,0.2529,0.2544,0.2593,0.2602,0.2635,0.267,0.2702,0.273,0.2774,0.2864,0.2877,0.2887,0.2898,0.2908,0.2906,0.2971,0.2986,0.2824,0.2824,0.2824,0,0,0.2282,0.2307,0.2342,0.2417,0.2456,0.2537,0.2507,0.2583,0.2637,0.2619,0.2708,0.2734,0.2747,0.2814,0.2858,0.2823,0.297,0.2921,0.2927,0.292,0.2983,0.2998,0.3011,0.2831,0.283,0.2829,0,0,0.2344,0.2341,0.2415,0.2467,0.2556,0.2575,0.2624,0.271,0.2717,0.2833,0.2814,0.2866,0.2954,0.2935,0.2937,0.3068,0.3042,0.3091,0.3112,0.3176,0.3187,0.3198,0.3246,0.3261,0.3081,0.3081,0.3081,0,0.2347,0.2432,0.2454,0.2533,0.2561,0.2612,0.27,0.2737,0.2856,0.2871,0.2873,0.298,0.299,0.3028,0.3047,0.3083,0.3123,0.3035,0.3184,0.3195,0.3205,0.3252,0.3268,0.3083,0.3083,0.3083,0.3083,0,0.2511,0.2539,0.2579,0.2677,0.2722,0.2791,0.286,0.2921,0.2946,0.2978,0.3057,0.3085,0.3127,0.3139,0.312,0.3195,0.3203,0.3194,0.3124,0.3221,0.3267,0.3282,0.3087,0.3086,0.3085,0.3085,0,0,0.2574,0.2668,0.2672,0.2693,0.2778,0.2826,0.2912,0.2976,0.3019,0.3105,0.3155,0.3191,0.3201,0.3209,0.3208,0.3247,0.3342,0.3251,0.3253,0.3259,0.3492,0.3365,0.337,0.3363,0.3366,0.3368,0.3496,0,0.2673,0.2773,0.2813,0.2895,0.2935,0.2957,0.3016,0.3079,0.3119,0.3195,0.3197,0.3268,0.3229,0.3259,0.329,0.3357,0.3386,0.3309,0.3433,0.3436,0.3277,0.3384,0.3089,0.3166,0.3511,0.3514,0.3515,0,0.2806,0.2828,0.2909,0.2918,0.2945,0.3011,0.3044,0.3118,0.3202,0.3239,0.3294,0.3337,0.341,0.3369,0.3488,0.3452,0.3467,0.3496,0.3501,0.3379,0.3338,0.313,0.3182,0.3541,0.3539,0.3537,0.3536,0,0.2775,0.2863,0.2884,0.2904,0.2978,0.3,0.3042,0.3123,0.318,0.3288,0.3369,0.3439,0.3525,0.3566,0.361,0.358,0.3738,0.3702,0.3591,0.3583,0.335,0.3315,0.3762,0.3762,0.3762,0.3761,0.3761,0,0.2791,0.2807,0.2868,0.2881,0.2924,0.2977,0.3046,0.3104,0.3216,0.3312,0.3395,0.35,0.3588,0.3681,0.3674,0.369,0.3791,0.3613,0.3613,0.3354,0.3319,0.3652,0.3637,0.3766,0.3765,0.3764,0.3763,0,0.2747,0.2782,0.2819,0.2885,0.2908,0.2941,0.3056,0.3124,0.3234,0.3377,0.3432,0.3603,0.3728,0.3776,0.3871,0.3786,0.3799,0.3758,0.3438,0.3395,0.3587,0.3573,0.3676,0.3673,0.367,0.3668,0.3666,0,0.2733,0.2744,0.2814,0.2849,0.2883,0.2947,0.3009,0.3115,0.3205,0.3431,0.3508,0.3686,0.3736,0.3819,0.3738,0.3695,0.3777,0.3386,0.3245,0.3591,0.3582,0.3573,0.3563,0.2967,0.2959,0.2953,0.2948,0,0.272,0.2744,0.2785,0.2844,0.2905,0.2963,0.3058,0.3118,0.327,0.3376,0.3522,0.3571,0.3651,0.3478,0.3419,0.3341,0.3368,0.3257,0.3742,0.3015,0.2927,0.2916,0.2929,0.2893,0.2899,0.2903,0.2906,0.2908,0.2729,0.2745,0.2801,0.2841,0.292,0.2958,0.2957,0.305,0.3122,0.3164,0.3329,0.3254,0.3256,0.2995,0.2906,0.285,0.3059,0.2897,0.2914,0.2939,0.2815,0.2724,0.263,0.2634,0.2637,0.264,0.2643,0,0.2717,0.2742,0.2795,0.2834,0.2864,0.2922,0.2979,0.2889,0.288,0.2907,0.2885,0.2556,0.243,0.2484,0.2309,0.2275,0.2231,0.2189,0.2128,0.2183,0.2232,0.2071,0.169,0.1688,0.1685,0.1683,0,0,0.2725,0.2737,0.2729,0.2745,0.2781,0.2741,0.2725,0.2583,0.2518,0.2284,0.2184,0.2211,0.2353,0.1969,0.1925,0.1806,0.197,0.1716,0.2477,0.2458,0.2504,0.2635,0.2448,0,0,0,0,0]},{"header":{"parameterUnit":"m.s-1","parameterCategory":2,"la1":30.2991,"la2":30.254,"lo1":-89.0895,"lo2":-89.0444,"dy":0.0017,"dx":0.0017,"nx":28,"ny":28,"refTime":"2024-04-13T03:00:00:Z","depth":"2","parameterNumber":3,"parameterNumberName":"V-component_of_CURRENTS"},"data":[0,0,0,0,0,0,0,0,0,0,0,0,0,0,0,0,0,0,0,0,0,0,0,0,0,0,0,0,0,0,0,0,0,0,0,0,0,0,0,0,0,0,0,0,0,0,0,0,0,0,0,0,0,0,0,0,0,0,-0.0211,-0.0211,0,-0.0248,-0.0249,-0.0249,-0.025,-0.0249,-0.0249,-0.0249,-0.0339,-0.0342,-0.0344,0,0,0,0,0,0,0,0,0,0,0,0,0,-0.0169,-0.0169,-0.0211,-0.0211,-0.0212,-0.0248,-0.0249,-0.0249,-0.025,-0.0249,-0.0249,-0.0249,-0.0338,-0.0341,-0.0344,0,0,0,0,0,0,0,0,0,0,0,0,0,-0.0192,-0.0169,-0.021,-0.0219,-0.022,-0.0248,-0.0249,-0.0249,-0.025,-0.0249,-0.0249,-0.0249,-0.0337,-0.0341,-0.0345,-0.0375,0,0,-0.0357,-0.0358,0,0,0,0,0,0,0,0,-0.019,-0.0193,-0.0217,-0.0219,-0.022,-0.0247,-0.0267,-0.0295,-0.025,-0.0235,-0.0249,-0.0249,-0.0315,-0.0321,-0.0324,-0.0379,-0.0383,-0.0357,-0.0359,-0.0361,-0.0362,0,0,0,0,0,0,0,-0.0189,-0.0191,-0.0223,-0.0218,-0.022,-0.0231,-0.0234,-0.0272,-0.0275,-0.0237,-0.0238,-0.0247,-0.0316,-0.032,-0.0326,-0.0384,-0.0357,-0.036,-0.0363,-0.0364,-0.0484,-0.0485,0,0,0,0,0,0,-0.0189,-0.019,-0.0221,-0.0224,-0.0208,-0.0232,-0.0235,-0.0236,-0.0274,-0.028,-0.0247,-0.0247,-0.0313,-0.0321,-0.0329,-0.0347,-0.0361,-0.0364,-0.0367,-0.0483,-0.0484,-0.0485,0,0,0,0,0,0,-0.0188,-0.0191,-0.022,-0.0211,-0.0215,-0.0234,-0.0235,-0.0237,-0.0258,-0.0281,-0.0287,-0.0268,-0.0313,-0.0324,-0.0381,-0.0351,-0.0366,-0.037,-0.0482,-0.0483,-0.0485,-0.0396,0,0,0,0,0,0,-0.0186,-0.019,-0.0185,-0.021,-0.0216,-0.0253,-0.0235,-0.0238,-0.0265,-0.0265,-0.0302,-0.0308,-0.0314,-0.0375,-0.0385,-0.0357,-0.0373,-0.0481,-0.0483,-0.0484,-0.0397,-0.0394,-0.0391,0,0,0,0,0,-0.0184,-0.0174,-0.0184,-0.0188,-0.021,-0.0254,-0.0259,-0.0268,-0.0266,-0.0284,-0.0308,-0.0308,-0.0391,-0.038,-0.0391,-0.0363,-0.048,-0.0482,-0.0484,-0.0399,-0.0394,-0.0391,0,0,0,0,0,0,-0.0155,-0.0175,-0.0186,-0.0183,-0.0227,-0.0256,-0.026,-0.0282,-0.0314,-0.0311,-0.0333,-0.0343,-0.0374,-0.0403,-0.039,-0.0408,-0.0431,-0.0435,-0.0362,-0.0359,-0.0355,-0.0314,-0.0376,0,0,0,0,0,-0.0149,-0.0146,-0.0187,-0.0191,-0.0206,-0.0241,-0.0257,-0.0277,-0.031,-0.0322,-0.0346,-0.0371,-0.0388,-0.0404,-0.0432,-0.0457,-0.0463,-0.0447,-0.0443,-0.0439,-0.0417,-0.0398,-0.0388,-0.0491,-0.0491,-0.0491,0,0,-0.0148,-0.0152,-0.0157,-0.0186,-0.0208,-0.0217,-0.0249,-0.0282,-0.028,-0.033,-0.0333,-0.037,-0.0399,-0.0408,-0.0424,-0.0428,-0.0424,-0.0442,-0.0438,-0.0417,-0.0398,-0.0387,-0.0378,-0.0493,-0.0492,-0.0492,0,0,-0.0136,-0.0143,-0.0137,-0.0162,-0.02,-0.0215,-0.0233,-0.0276,-0.0282,-0.0315,-0.033,-0.0356,-0.04,-0.0393,-0.0398,-0.0405,-0.0411,-0.0422,-0.0358,-0.0339,-0.0329,-0.032,-0.0342,-0.0335,-0.0412,-0.0411,-0.0411,0,-0.0132,-0.0117,-0.015,-0.0148,-0.0148,-0.0212,-0.0207,-0.0227,-0.0284,-0.0278,-0.0309,-0.0337,-0.0375,-0.035,-0.0348,-0.0388,-0.0396,-0.0361,-0.0328,-0.0319,-0.0311,-0.0336,-0.0329,-0.0407,-0.0408,-0.0408,-0.0409,0,-0.0117,-0.0103,-0.0102,-0.0101,-0.0116,-0.0129,-0.0158,-0.0175,-0.0192,-0.0206,-0.0212,-0.0262,-0.0265,-0.0288,-0.0318,-0.0278,-0.0312,-0.0325,-0.0322,-0.0294,-0.0324,-0.0319,-0.0402,-0.0403,-0.0404,-0.0405,0,0,-0.0097,-0.009,-0.0085,-0.0062,-0.0085,-0.0091,-0.0082,-0.0082,-0.0048,-0.0108,-0.0059,-0.011,-0.0136,-0.0146,-0.0188,-0.0183,-0.0157,-0.0226,-0.0227,-0.0219,-0.0138,-0.0205,-0.0207,-0.0154,-0.0152,-0.0151,-0.019,0,-0.0069,-0.0031,-0.0036,0.0004,0.0025,-0.0002,0.0026,0.0017,0.001,0.0036,-0.0007,0.0012,-0.008,-0.0067,-0.0081,-0.0122,-0.0135,-0.0146,-0.0192,-0.0194,-0.0231,-0.02,-0.017,-0.0204,-0.0185,-0.0185,-0.0184,0,-0.0029,-0.0003,0.0046,0.0096,0.0104,0.0123,0.0181,0.0191,0.0205,0.0205,0.0202,0.0168,0.0166,0.0086,0.0033,0.0032,-0.0048,-0.0099,-0.0102,-0.0182,-0.0249,-0.0228,-0.0196,-0.0176,-0.0177,-0.0177,-0.0178,0,0.004,0.0072,0.0129,0.0137,0.0167,0.0204,0.0227,0.025,0.0297,0.0327,0.0376,0.0334,0.0355,0.026,0.0123,0.0097,0.0055,0.0011,-0.0137,-0.0145,-0.0136,-0.0146,-0.0029,-0.0029,-0.0029,-0.0028,-0.0028,0,0.0107,0.0155,0.017,0.0201,0.0286,0.0281,0.0381,0.0394,0.045,0.0532,0.0479,0.0532,0.0407,0.0351,0.0193,0.0046,0.0108,-0.0113,-0.0143,-0.0114,-0.0121,-0.0108,-0.0116,-0.003,-0.003,-0.0029,-0.0029,0,0.0188,0.0194,0.0262,0.0302,0.0326,0.039,0.0482,0.0554,0.0596,0.0709,0.0736,0.0719,0.0646,0.0479,0.0335,0.0162,0.0011,-0.007,-0.0056,-0.0084,-0.0227,-0.0231,-0.0217,-0.0219,-0.0221,-0.0223,-0.0224,0,0.0235,0.0276,0.0339,0.0384,0.0411,0.0499,0.0572,0.0627,0.07,0.0813,0.0872,0.0856,0.0825,0.0573,0.03,0.0031,-0.0012,-0.0145,-0.0194,-0.0207,-0.0238,-0.0239,-0.0241,-0.0163,-0.0164,-0.0165,-0.0165,0,0.0314,0.0335,0.0381,0.0449,0.0531,0.0628,0.0722,0.0799,0.0879,0.0979,0.1046,0.104,0.0848,0.0596,0.0246,0.0052,-0.0099,-0.017,-0.0133,-0.0133,-0.0163,-0.0192,-0.0193,-0.0171,-0.017,-0.017,-0.017,-0.0169,0.0362,0.0386,0.0413,0.0477,0.0594,0.0682,0.0745,0.0867,0.0975,0.1125,0.1123,0.1149,0.0902,0.0463,0.0161,-0.0144,-0.0148,-0.0277,-0.0271,-0.0266,-0.0265,-0.0297,-0.0333,-0.0333,-0.0334,-0.0334,-0.0334,0,0.0325,0.0334,0.0418,0.0464,0.0568,0.0644,0.0786,0.0882,0.1,0.1194,0.1262,0.1026,0.0769,0.0499,0.005,-0.0252,-0.0251,-0.0347,-0.0271,-0.0265,-0.0259,-0.0255,-0.0322,-0.0322,-0.0323,-0.0323,0,0,0.0294,0.0285,0.0293,0.037,0.0461,0.0576,0.0654,0.0869,0.103,0.1211,0.1269,0.1275,0.0906,0.0571,0.0191,-0.0049,-0.009,-0.0106,-0.0088,0.0053,0.0062,-0.0197,-0.0182,0,0,0,0,0]}],[{"header":{"parameterUnit":"m.s-1","parameterCategory":2,"la1":30.2991,"la2":30.254,"lo1":-89.0895,"lo2":-89.0444,"dy":0.0017,"dx":0.0017,"nx":28,"ny":28,"refTime":"2024-04-13T03:00:00:Z","depth":"4","parameterNumber":2,"parameterNumberName":"U-component_of_CURRENTS"},"data":[0,0,0,0,0,0,0,0,0,0,0,0,0,0,0,0,0,0,0,0,0,0,0,0,0,0,0,0,0,0,0,0,0,0,0,0,0,0,0,0,0,0,0,0,0,0,0,0,0,0,0,0,0,0,0,0,0,0,0.0976,0.0976,0,0.1013,0.1013,0.1014,0.113,0.1133,0.1135,0.1137,0.1216,0.1216,0.1216,0,0,0,0,0,0,0,0,0,0,0,0,0,0.1017,0.1016,0.0976,0.0976,0.0976,0.1013,0.1013,0.1014,0.113,0.1133,0.1135,0.1138,0.1216,0.1216,0.1216,0,0,0,0,0,0,0,0,0,0,0,0,0,0.1025,0.1016,0.0976,0.1035,0.104,0.1012,0.1014,0.1015,0.113,0.1133,0.1136,0.1139,0.1216,0.1216,0.1216,0.1152,0,0,0.1216,0.1216,0,0,0,0,0,0,0,0,0.1025,0.1024,0.1026,0.103,0.1036,0.1066,0.1057,0.1061,0.1129,0.11,0.1137,0.1141,0.1164,0.1169,0.1174,0.1156,0.1159,0.1216,0.1216,0.1217,0.1217,0,0,0,0,0,0,0,0.1024,0.1023,0.0995,0.1025,0.1032,0.1063,0.1068,0.1059,0.1118,0.1103,0.111,0.1106,0.1169,0.1174,0.1177,0.116,0.1216,0.1217,0.1217,0.1217,0.1198,0.1198,0,0,0,0,0,0,0.1006,0.1022,0.0994,0.0996,0.1033,0.1059,0.1065,0.1057,0.1117,0.1128,0.1103,0.1111,0.1172,0.1177,0.118,0.126,0.1217,0.1217,0.1217,0.1199,0.1198,0.1197,0,0,0,0,0,0,0.1006,0.1002,0.0992,0.1007,0.1007,0.1054,0.1045,0.1056,0.1094,0.1116,0.113,0.1133,0.1175,0.118,0.1191,0.1259,0.1217,0.1217,0.1199,0.1198,0.1198,0.1322,0,0,0,0,0,0,0.1007,0.1002,0.1003,0.1005,0.1006,0.0988,0.1041,0.1054,0.1082,0.1094,0.1144,0.1154,0.1178,0.1191,0.1191,0.1258,0.1217,0.12,0.1199,0.1198,0.1319,0.1326,0.1332,0,0,0,0,0,0.1008,0.0983,0.1003,0.1,0.1001,0.0987,0.099,0.1038,0.108,0.1088,0.1124,0.1154,0.1185,0.1189,0.119,0.126,0.1201,0.1199,0.1198,0.1316,0.1324,0.1332,0,0,0,0,0,0,0.1002,0.0991,0.1014,0.0989,0.0996,0.1005,0.1009,0.1041,0.1074,0.1094,0.1134,0.1144,0.1189,0.117,0.1174,0.1241,0.1202,0.1201,0.1291,0.1299,0.1305,0.1367,0.1217,0,0,0,0,0,0.0996,0.0984,0.098,0.0968,0.0963,0.0991,0.0997,0.1026,0.1045,0.1066,0.111,0.114,0.1172,0.1194,0.1205,0.1222,0.1245,0.1263,0.1269,0.1276,0.132,0.1413,0.1436,0.1193,0.1193,0.1193,0,0,0.0984,0.0984,0.0975,0.0967,0.0977,0.0967,0.1006,0.1008,0.1053,0.1062,0.1139,0.116,0.1176,0.1224,0.1242,0.1228,0.134,0.1274,0.128,0.1322,0.1415,0.144,0.1462,0.1192,0.1192,0.1193,0,0,0.095,0.0959,0.0935,0.0945,0.0953,0.0958,0.0961,0.0985,0.1057,0.1095,0.1139,0.1199,0.122,0.1281,0.1305,0.1334,0.1369,0.1327,0.1429,0.1519,0.1542,0.1563,0.1576,0.1597,0.1337,0.1337,0.1337,0,0.0943,0.0919,0.0928,0.0922,0.0945,0.0954,0.0958,0.1003,0.1047,0.1127,0.1131,0.1247,0.1265,0.137,0.1406,0.1365,0.1392,0.1413,0.1538,0.1559,0.1579,0.1587,0.1609,0.1343,0.1342,0.1342,0.1341,0,0.0887,0.0893,0.0879,0.0883,0.0911,0.0901,0.0963,0.1031,0.1106,0.1165,0.1303,0.1339,0.1427,0.1438,0.1448,0.1596,0.1558,0.154,0.1541,0.1613,0.1612,0.1634,0.1351,0.1349,0.1348,0.1346,0,0,0.0804,0.0831,0.0833,0.0878,0.0901,0.0925,0.1016,0.1109,0.1214,0.1289,0.1428,0.153,0.1582,0.1612,0.1637,0.173,0.188,0.1717,0.1719,0.1769,0.2045,0.1865,0.1869,0.1906,0.1911,0.1916,0.1974,0,0.0761,0.0778,0.0797,0.084,0.0868,0.0954,0.105,0.1165,0.1271,0.1393,0.1504,0.162,0.1635,0.1713,0.1805,0.1876,0.1949,0.1863,0.1934,0.1935,0.1803,0.1894,0.1933,0.1989,0.1994,0.1998,0.2,0,0.0696,0.074,0.0789,0.0912,0.0931,0.0971,0.118,0.1257,0.143,0.1539,0.1676,0.1738,0.1912,0.1887,0.2087,0.204,0.2068,0.2098,0.21,0.192,0.1797,0.1909,0.2038,0.2035,0.2032,0.203,0.2028,0,0.0682,0.0736,0.0804,0.0837,0.0957,0.1063,0.1134,0.1324,0.1425,0.1644,0.1715,0.191,0.2017,0.2127,0.2197,0.2185,0.235,0.2319,0.2163,0.2147,0.224,0.2217,0.2446,0.2446,0.2446,0.2446,0.2446,0,0.0634,0.0674,0.0824,0.0857,0.0987,0.1098,0.1224,0.1373,0.1525,0.1622,0.1783,0.1879,0.2103,0.2193,0.2237,0.2259,0.2387,0.2217,0.2181,0.2273,0.2254,0.2251,0.2228,0.2448,0.2448,0.2447,0.2447,0,0.0573,0.065,0.0727,0.0899,0.0975,0.1076,0.1216,0.1311,0.1487,0.1615,0.1696,0.1917,0.208,0.2181,0.2357,0.2298,0.2339,0.2289,0.2348,0.2307,0.206,0.2042,0.217,0.2165,0.2161,0.2157,0.2154,0,0.0527,0.0587,0.0752,0.0819,0.0888,0.103,0.113,0.1306,0.1384,0.161,0.1659,0.1871,0.1992,0.2054,0.2203,0.2258,0.2224,0.2219,0.2198,0.2095,0.2048,0.2036,0.2024,0.2147,0.2146,0.2145,0.2144,0,0.0466,0.0535,0.0585,0.0727,0.0845,0.0939,0.108,0.1124,0.133,0.1478,0.1614,0.1713,0.1842,0.1983,0.2025,0.2056,0.2234,0.2173,0.2183,0.2164,0.2068,0.2023,0.2016,0.2128,0.213,0.2132,0.2133,0,0.0402,0.0413,0.0501,0.0612,0.0743,0.0842,0.0911,0.1027,0.1126,0.1391,0.1436,0.1625,0.1827,0.1872,0.1909,0.1938,0.1934,0.189,0.1915,0.1933,0.1833,0.1675,0.1621,0,0,0,0,0,0.0357,0.0345,0.0404,0.0498,0.0612,0.0708,0.089,0.0963,0.116,0.1222,0.1326,0.144,0.1565,0.1662,0.1652,0.1806,0.1927,0.1786,0.1883,0.2044,0.2061,0.1968,0,0,0,0,0,0,0.0319,0.033,0.0339,0.0391,0.0451,0.0573,0.0693,0.0834,0.0865,0.108,0.1151,0.1327,0.1457,0.1539,0.1609,0.1641,0.167,0.1911,0.1907,0.2034,0.205,0.2064,0.1974,0,0,0,0,0]},{"header":{"parameterUnit":"m.s-1","parameterCategory":2,"la1":30.2991,"la2":30.254,"lo1":-89.0895,"lo2":-89.0444,"dy":0.0017,"dx":0.0017,"nx":28,"ny":28,"refTime":"2024-04-13T03:00:00:Z","depth":"4","parameterNumber":3,"parameterNumberName":"V-component_of_CURRENTS"},"data":[0,0,0,0,0,0,0,0,0,0,0,0,0,0,0,0,0,0,0,0,0,0,0,0,0,0,0,0,0,0,0,0,0,0,0,0,0,0,0,0,0,0,0,0,0,0,0,0,0,0,0,0,0,0,0,0,0,0,0.0132,0.0132,0,0.0143,0.0143,0.0143,0.008,0.0078,0.0077,0.0076,0.0074,0.0075,0.0076,0,0,0,0,0,0,0,0,0,0,0,0,0,0.0044,0.0045,0.0132,0.0132,0.0133,0.0143,0.0143,0.0143,0.008,0.0078,0.0076,0.0075,0.0074,0.0075,0.0077,0,0,0,0,0,0,0,0,0,0,0,0,0,0.0067,0.0046,0.0132,0.0106,0.0105,0.0143,0.0143,0.0142,0.008,0.0078,0.0076,0.0074,0.0073,0.0075,0.0077,0.0129,0,0,0.0082,0.0083,0,0,0,0,0,0,0,0,0.0065,0.0069,0.011,0.0108,0.0106,0.0112,0.0112,0.0139,0.0081,0.0084,0.0076,0.0073,0.009,0.0091,0.009,0.0129,0.0129,0.0083,0.0084,0.0084,0.0085,0,0,0,0,0,0,0,0.0064,0.0068,0.0131,0.0111,0.0109,0.0091,0.0091,0.0116,0.0094,0.0084,0.008,0.009,0.0088,0.0089,0.009,0.0128,0.0082,0.0084,0.0085,0.0086,0.0176,0.0178,0,0,0,0,0,0,0.0076,0.0067,0.0131,0.0132,0.0086,0.0095,0.0095,0.0108,0.0094,0.0092,0.0092,0.0087,0.0087,0.0088,0.009,0.0134,0.0084,0.0086,0.0087,0.0175,0.0177,0.0178,0,0,0,0,0,0,0.0074,0.0082,0.013,0.0103,0.0109,0.0099,0.0114,0.011,0.0106,0.0102,0.0097,0.0092,0.0085,0.0087,0.0122,0.0134,0.0087,0.0089,0.0174,0.0176,0.0177,0.0233,0,0,0,0,0,0,0.0071,0.0081,0.0092,0.0105,0.0111,0.0168,0.0116,0.0112,0.0118,0.0111,0.0101,0.0099,0.0084,0.012,0.0124,0.0135,0.009,0.0172,0.0175,0.0177,0.023,0.0237,0.0243,0,0,0,0,0,0.0068,0.0105,0.0092,0.01,0.0128,0.017,0.0172,0.0153,0.012,0.0137,0.0127,0.0099,0.0137,0.0124,0.0128,0.014,0.0171,0.0174,0.0177,0.0227,0.0235,0.0243,0,0,0,0,0,0,0.0074,0.0103,0.0089,0.0131,0.0152,0.0161,0.0181,0.0163,0.0167,0.0162,0.0133,0.0132,0.0161,0.0154,0.0139,0.0173,0.0143,0.0147,0.018,0.0188,0.0194,0.0164,0.0092,0,0,0,0,0,0.0083,0.0115,0.0135,0.0169,0.0184,0.0179,0.0191,0.0187,0.0196,0.0193,0.0188,0.0181,0.018,0.0186,0.0195,0.0231,0.0174,0.0236,0.0243,0.0248,0.0228,0.0153,0.0149,0.0188,0.0188,0.0188,0,0,0.0097,0.0115,0.0134,0.0172,0.0183,0.0217,0.0181,0.022,0.0238,0.0198,0.0227,0.0215,0.0197,0.0225,0.0236,0.0219,0.0215,0.0252,0.0257,0.0232,0.0155,0.0151,0.0147,0.019,0.0189,0.0189,0,0,0.0156,0.0158,0.0208,0.0226,0.0261,0.0259,0.0272,0.0295,0.0293,0.0331,0.0291,0.028,0.0309,0.0278,0.0266,0.0317,0.0254,0.0331,0.0339,0.0268,0.0263,0.0258,0.0204,0.0194,0.0331,0.0331,0.0332,0,0.017,0.022,0.023,0.0277,0.0293,0.0278,0.0326,0.0332,0.036,0.0355,0.0351,0.0326,0.032,0.0296,0.0313,0.0327,0.0284,0.031,0.0273,0.0266,0.026,0.0206,0.0193,0.0335,0.0334,0.0334,0.0334,0,0.0267,0.0291,0.0325,0.0364,0.0391,0.0431,0.0443,0.046,0.0449,0.0433,0.0424,0.0403,0.0369,0.0374,0.0363,0.032,0.0305,0.029,0.0245,0.0259,0.0202,0.0188,0.0339,0.0338,0.0337,0.0336,0,0,0.0327,0.0379,0.0387,0.0401,0.0434,0.0467,0.05,0.051,0.0498,0.0503,0.0473,0.0461,0.0413,0.0395,0.0367,0.031,0.0247,0.0289,0.0284,0.0223,0.0098,0.0115,0.0101,0.0224,0.0222,0.022,0.0084,0,0.0388,0.047,0.0487,0.0542,0.0574,0.0565,0.0586,0.059,0.0571,0.0543,0.0481,0.0453,0.0431,0.041,0.0348,0.0273,0.0209,0.0285,0.0104,0.0099,0.01,0.0084,0.0212,0.0073,0.007,0.0067,0.0065,0,0.0474,0.0505,0.0578,0.0597,0.0613,0.0648,0.0647,0.0664,0.0611,0.0593,0.0528,0.0472,0.0392,0.0372,0.0213,0.0265,0.0182,0.0116,0.0109,0.0086,0.0088,0.0051,0.0039,0.0041,0.0043,0.0045,0.0046,0,0.0495,0.0563,0.0613,0.0626,0.0656,0.0686,0.0699,0.0677,0.0674,0.0611,0.0576,0.0471,0.0412,0.029,0.0165,0.0184,-0.002,-0.0013,-0.0087,-0.0086,-0.0087,-0.008,-0.0151,-0.0151,-0.0151,-0.015,-0.015,0,0.0531,0.0563,0.0629,0.0645,0.0692,0.0717,0.0741,0.0729,0.0701,0.0675,0.0592,0.0534,0.0385,0.0258,0.0148,-0.0013,-0.0042,-0.0105,-0.013,-0.0053,-0.0041,-0.0096,-0.0088,-0.0156,-0.0154,-0.0153,-0.0153,0,0.0529,0.057,0.0623,0.068,0.07,0.0737,0.0778,0.078,0.075,0.0711,0.0691,0.0566,0.0415,0.0255,0.0054,-0.0031,-0.0183,-0.0238,-0.0143,-0.0157,-0.0196,-0.0183,-0.0333,-0.0333,-0.0334,-0.0335,-0.0335,0,0.0525,0.0562,0.0644,0.0678,0.0708,0.0764,0.079,0.0802,0.0802,0.0728,0.07,0.0555,0.0459,0.0178,0.0025,-0.0199,-0.0225,-0.0308,-0.0257,-0.021,-0.022,-0.0206,-0.0192,-0.0336,-0.0336,-0.0336,-0.0337,0,0.0516,0.0562,0.0605,0.0682,0.0739,0.0782,0.0827,0.0829,0.0826,0.0795,0.0696,0.0554,0.0377,0.0185,0.0004,-0.0153,-0.0252,-0.0316,-0.0315,-0.0267,-0.0216,-0.0222,-0.0208,-0.0339,-0.0339,-0.0338,-0.0338,0,0.0517,0.0552,0.063,0.0694,0.0756,0.0797,0.0817,0.0825,0.0825,0.0757,0.0724,0.0542,0.0442,0.0206,0.004,-0.011,-0.0137,-0.018,-0.0187,-0.0186,-0.0092,-0.0003,-0.0101,0,0,0,0,0,0.0519,0.0571,0.0633,0.0709,0.0763,0.0803,0.0838,0.0851,0.0848,0.0787,0.0763,0.0606,0.0361,0.0244,0.0097,0.0032,-0.0164,-0.0146,-0.0216,-0.0352,-0.0349,-0.0261,0,0,0,0,0,0,0.0535,0.0598,0.0637,0.0712,0.0754,0.0817,0.0845,0.0838,0.0804,0.0774,0.0644,0.0575,0.0336,0.0451,0.0097,0.0049,-0.0015,-0.0262,-0.0265,-0.0353,-0.0351,-0.0349,-0.0257,0,0,0,0,0]}]]